Location: *
(49.5667°N, 1.3667°W)
Time: 05:26:37
(UTC+00:00)

Resurs 01 Rocket - Pass Details

Date: 20 September 2019
Orbit: 635 x 644 km, 98.0° (Epoch: 15 October)

Event Time Altitude Azimuth Distance (km) Brightness Sun altitude
Exits shadow 19:53:03 33° 120° (ESE) 1,072 2.2 -17.3°
Maximum altitude 19:54:33 48° 70° (ENE) 846 1.9 -17.5°
Drops below altitude 10° 19:58:51 10° 356° (N) 2,051 4.6 -18.1°
Sets 20:01:07 0° 351° (N) 2,966 5.5 -18.5°
